Home > Time Zones > World Clock > Weather > Spain > Cadiz > Past weeks

Flag for Spain Weather past 2 weeks in Cadiz, Cádiz, Spain

Now
57 °F

Clear.


Feels Like: 55 °F
Forecast: 49 / 66 °F
Wind: 10 mph from West

Location: Rota Airport

Current Time: Feb 27, 2015 at 11:10:10 PM

Latest Report: Feb 27, 2015 at 10:00 PM


Visibility: 10 mi

Pressure: 30.27 "Hg

Humidity: 88%

Dew point: 54 °F

Location of CadizLocation

Historic Weather in Cadiz — Graph

°F

Cadiz temperature yesterday

Maximum temperature yesterday: 61 °F (at 5:00 PM)
Minimum temperature yesterday: 45 °F (at 8:00 AM)
Average temperature yesterday: 55 °F

Past Weeks' High & Low Weather Summary

 TemperatureHumidityPressure
High64 °F (Feb 18, 4:00 PM)100% (Feb 13, 2:00 AM)30.54 "Hg (Feb 13, 2:00 AM)
Low41 °F (Feb 19, 8:00 AM)43% (Feb 19, 5:00 PM)29.86 "Hg (Feb 21, 4:00 PM)
Average54 °F77%30.22 "Hg
* Reported Feb 12 9:00 PM — Feb 27 9:00 PM, Cadiz, Weather by CustomWeather, © 2015

Note: Actual official high and low records may vary slightly from our data, if they occured in-between our weather recording intervals... More about our weather records

Advertising

Cadiz weather history for previous 24 hours

 ConditionsComfort  
Time TempWeatherWind HumidityBarometerVisibility
9:00 PM
Fri, Feb 27
57 °FClear.14 mph88%30.27 "Hg10 mi
8:00 PM57 °FClear.15 mph88%30.27 "Hg10 mi
7:00 PM57 °FSunny.14 mph88%30.24 "Hg10 mi
6:00 PM59 °FPassing clouds.16 mph82%30.24 "HgN/A
5:00 PM61 °FPassing clouds.17 mph77%30.24 "HgN/A
4:00 PM61 °FPassing clouds.16 mph72%30.24 "HgN/A
3:00 PM61 °FPassing clouds.16 mph72%30.27 "HgN/A
2:00 PM59 °FPassing clouds.16 mph77%30.30 "HgN/A
1:00 PM59 °FPassing clouds.14 mph77%30.30 "HgN/A
12:00 PM59 °FPassing clouds.13 mph77%30.30 "HgN/A
11:00 AM57 °FPassing clouds.13 mph77%30.30 "HgN/A
10:00 AM55 °FSunny.15 mph82%30.30 "Hg10 mi
9:00 AM54 °FSunny.9 mph82%30.27 "Hg10 mi
8:00 AM52 °FSunny.10 mph88%30.27 "Hg10 mi
7:00 AM52 °FClear.10 mph88%30.24 "Hg10 mi
6:00 AM52 °FClear.13 mph88%30.24 "Hg10 mi
5:00 AM52 °FClear.13 mph88%30.24 "Hg10 mi
4:00 AM52 °FClear.13 mph88%30.24 "Hg10 mi
3:00 AM52 °FClear.12 mph82%30.27 "Hg10 mi
2:00 AM54 °FClear.9 mph77%30.27 "Hg10 mi
1:00 AM54 °FClear.14 mph77%30.27 "Hg10 mi
12:00 AM55 °FPassing clouds.12 mph82%30.27 "HgN/A
11:00 PM
Thu, Feb 26
55 °FClear.16 mph82%30.27 "Hg10 mi
Weather by CustomWeather, © 2015

See weather overviewHow to use our weather pages